| time (UTC) | temp F | wind direction | speed knots | gust knots | rain 1hr in | rain 24hr in | rain mn in | humidity % | barometer mb |
| 20260507010348 | 55 | 337 | 3.5 | 7.8 | 0.04 | 0.43 | 0.43 | 80 | 1007.9 |
| 20260507010336 | 55 | 348 | 1.7 | 4.3 | 0.04 | 0.34 | 0.34 | 94 | 1006.2 |
| 20260507004857 | 56 | 311 | 0.0 | 1.7 | 0.04 | 0.33 | 0.33 | 96 | 1005.8 |
| 20260507004828 | 56 | 280 | 1.7 | 9.6 | 0.08 | 0.43 | 0.43 | 80 | 1007.6 |
| 20260507003353 | 56 | 315 | 2.6 | 6.1 | 0.10 | 0.42 | 0.42 | 88 | 1007.5 |
| 20260507003316 | 56 | 303 | 0.9 | 2.6 | 0.03 | 0.32 | 0.32 | 96 | 1005.7 |
| 20260507001858 | 56 | 316 | 0.9 | 7.8 | 0.11 | 0.41 | 0.41 | 88 | 1007.2 |
| 20260507001817 | 58 | 348 | 2.6 | 7.0 | 0.03 | 0.31 | 0.31 | 95 | 1005.3 |
| 20260507000350 | 58 | 253 | 0.9 | 2.6 | 0.09 | 0.39 | 0.39 | 88 | 1006.5 |
| 20260507000321 | 58 | 282 | 0.9 | 6.1 | 0.02 | 0.30 | 0.30 | 97 | 1004.8 |
| 20260506234904 | 58 | 281 | 1.7 | 5.2 | 0.01 | 0.29 | 0.29 | 97 | 1004.5 |
| 20260506234832 | 58 | 201 | 1.7 | 6.1 | 0.05 | 0.35 | 0.35 | 88 | 1006.3 |
| 20260506233341 | 58 | 283 | 0.9 | 6.1 | 0.03 | 0.32 | 0.32 | 88 | 1005.9 |
| 20260506233323 | 58 | 36 | 0.9 | 4.3 | 0.02 | 0.29 | 0.29 | 97 | 1004.3 |
| 20260506231900 | 58 | 141 | 2.6 | 8.7 | 0.01 | 0.30 | 0.30 | 88 | 1005.6 |
| 20260506231821 | 58 | 132 | 0.9 | 3.5 | 0.01 | 0.28 | 0.28 | 96 | 1004.2 |
| 20260506230410 | 58 | 141 | 3.5 | 8.7 | 0.02 | 0.30 | 0.30 | 88 | 1005.6 |
| 20260506230343 | 58 | 148 | 0.9 | 4.3 | 0.02 | 0.28 | 0.28 | 96 | 1004.2 |
| 20260506224827 | 58 | 127 | 3.5 | 10.4 | 0.03 | 0.30 | 0.30 | 88 | 1005.7 |
| 20260506224819 | 58 | 254 | 0.9 | 3.5 | 0.02 | 0.28 | 0.28 | 96 | 1004.3 |
| 20260506223421 | 58 | 116 | 4.3 | 9.6 | 0.02 | 0.29 | 0.29 | 87 | 1005.8 |
| 20260506223342 | 58 | 277 | 1.7 | 4.3 | 0.01 | 0.27 | 0.27 | 96 | 1004.3 |
| 20260506221906 | 58 | 98 | 0.9 | 4.3 | 0.01 | 0.27 | 0.27 | 96 | 1004.3 |
| 20260506221841 | 58 | 109 | 3.5 | 9.6 | 0.02 | 0.29 | 0.29 | 87 | 1005.8 |
| 20260506220412 | 58 | 122 | 2.6 | 13.9 | 0.02 | 0.28 | 0.28 | 87 | 1005.9 |
| 20260506220344 | 58 | 46 | 1.7 | 6.1 | 0.00 | 0.26 | 0.26 | 96 | 1004.4 |
| 20260506214900 | 58 | 135 | 3.5 | 11.3 | 0.01 | 0.27 | 0.27 | 86 | 1005.7 |
| 20260506214850 | 58 | 297 | 0.9 | 3.5 | 0.00 | 0.26 | 0.26 | 95 | 1004.4 |
| 20260506213413 | 59 | 120 | 0.9 | 6.1 | 0.01 | 0.26 | 0.26 | 95 | 1004.4 |
| 20260506213349 | 58 | 174 | 2.6 | 11.3 | 0.01 | 0.27 | 0.27 | 86 | 1005.8 |
| 20260506211830 | 58 | 150 | 6.1 | 13.9 | 0.01 | 0.27 | 0.27 | 85 | 1005.6 |
| 20260506211821 | 59 | 47 | 2.6 | 10.4 | 0.01 | 0.26 | 0.26 | 95 | 1004.4 |
| 20260506210400 | 58 | 127 | 6.1 | 12.2 | 0.01 | 0.26 | 0.26 | 85 | 1005.7 |
| 20260506210349 | 59 | 117 | 1.7 | 8.7 | 0.02 | 0.26 | 0.26 | 95 | 1004.4 |
| 20260506204905 | 59 | 142 | 4.3 | 12.2 | 0.01 | 0.26 | 0.26 | 85 | 1005.7 |
| 20260506204845 | 59 | 199 | 4.3 | 8.7 | 0.03 | 0.26 | 0.26 | 95 | 1004.4 |
| 20260506203416 | 59 | 103 | 5.2 | 15.6 | 0.02 | 0.26 | 0.26 | 85 | 1005.8 |
| 20260506203343 | 59 | 117 | 2.6 | 16.5 | 0.04 | 0.25 | 0.25 | 95 | 1004.6 |
| 20260506201954 | 59 | 73 | 6.1 | 11.3 | 0.04 | 0.26 | 0.26 | 85 | 1005.9 |
| 20260506201905 | 59 | 157 | 6.1 | 12.2 | 0.06 | 0.25 | 0.25 | 95 | 1004.7 |
| 20260506200333 | 59 | 128 | 3.5 | 13.0 | 0.07 | 0.25 | 0.25 | 85 | 1006.0 |
| 20260506200324 | 59 | 30 | 3.5 | 10.4 | 0.07 | 0.24 | 0.24 | 95 | 1004.6 |
| 20260506194858 | 59 | 104 | 3.5 | 14.8 | 0.09 | 0.25 | 0.25 | 85 | 1006.1 |
| 20260506194845 | 59 | 274 | 4.3 | 9.6 | 0.07 | 0.23 | 0.23 | 95 | 1004.9 |
| 20260506193350 | 60 | 88 | 3.5 | 9.6 | 0.06 | 0.21 | 0.21 | 95 | 1004.9 |
| 20260506193348 | 60 | 100 | 4.3 | 14.8 | 0.09 | 0.24 | 0.24 | 85 | 1006.3 |
| 20260506191918 | 60 | 105 | 5.2 | 14.8 | 0.09 | 0.22 | 0.22 | 85 | 1006.3 |
| 20260506191820 | 60 | 191 | 2.6 | 11.3 | 0.06 | 0.19 | 0.19 | 95 | 1005.1 |
| 20260506190426 | 60 | 135 | 6.1 | 13.0 | 0.07 | 0.18 | 0.18 | 84 | 1006.5 |
| 20260506190407 | 60 | 140 | 2.6 | 9.6 | 0.06 | 0.17 | 0.17 | 95 | 1005.2 |
| 20260506184908 | 60 | 120 | 5.2 | 13.9 | 0.07 | 0.16 | 0.16 | 84 | 1006.6 |
| 20260506184820 | 59 | 153 | 4.3 | 10.4 | 0.07 | 0.16 | 0.16 | 95 | 1005.2 |
| 20260506183449 | 60 | 200 | 2.6 | 8.7 | 0.08 | 0.15 | 0.15 | 84 | 1006.6 |
| 20260506183321 | 59 | 128 | 6.1 | 9.6 | 0.08 | 0.15 | 0.15 | 95 | 1005.2 |
| 20260506181946 | 60 | 99 | 3.5 | 10.4 | 0.08 | 0.13 | 0.13 | 82 | 1006.8 |
| 20260506181837 | 59 | 157 | 6.1 | 9.6 | 0.08 | 0.13 | 0.13 | 94 | 1005.5 |
| 20260506180335 | 60 | 138 | 3.5 | 7.8 | 0.08 | 0.11 | 0.11 | 94 | 1005.9 |
| 20260506180327 | 60 | 101 | 4.3 | 10.4 | 0.07 | 0.11 | 0.11 | 81 | 1007.2 |
| 20260506174858 | 60 | 117 | 1.7 | 3.5 | 0.08 | 0.09 | 0.09 | 94 | 1006.2 |
| 20260506174843 | 60 | 120 | 1.7 | 7.8 | 0.07 | 0.09 | 0.09 | 79 | 1007.7 |
| 20260506173435 | 60 | 108 | 0.9 | 5.2 | 0.06 | 0.07 | 0.07 | 78 | 1008.0 |
| 20260506173400 | 60 | 142 | 1.7 | 3.5 | 0.07 | 0.07 | 0.07 | 93 | 1006.5 |
| 20260506171904 | 60 | 132 | 1.7 | 2.6 | 0.05 | 0.05 | 0.05 | 92 | 1006.7 |
| 20260506171831 | 60 | 152 | 0.9 | 7.0 | 0.05 | 0.05 | 0.05 | 75 | 1008.2 |
| 20260506170342 | 60 | 182 | 1.7 | 6.1 | 0.04 | 0.04 | 0.04 | 74 | 1008.4 |
| 20260506170321 | 61 | 143 | 0.9 | 3.5 | 0.03 | 0.03 | 0.03 | 91 | 1006.9 |
| 20260506164848 | 60 | 156 | 0.0 | 7.0 | 0.02 | 0.02 | 0.02 | 72 | 1008.3 |
| 20260506164838 | 61 | 78 | 0.0 | 1.7 | 0.01 | 0.01 | 0.01 | 91 | 1006.8 |
| 20260506163414 | 61 | 155 | 0.9 | 6.1 | 0.00 | 0.00 | 0.00 | 70 | 1008.3 |
| 20260506163356 | 61 | 106 | 0.9 | 4.3 | 0.00 | 0.00 | 0.00 | 89 | 1006.8 |
| 20260506163314 | 61 | 106 | 0.9 | 4.3 | 0.00 | 0.00 | 0.00 | 89 | 1006.8 |
| 20260506161834 | 61 | 142 | 1.7 | 6.1 | 0.00 | 0.00 | 0.00 | 68 | 1008.5 |
| 20260506161832 | 61 | 71 | 1.7 | 7.0 | 0.00 | 0.00 | 0.00 | 88 | 1006.9 |
| 20260506160401 | 62 | 167 | 1.7 | 7.8 | 0.00 | 0.00 | 0.00 | 67 | 1008.5 |
| 20260506160353 | 62 | 193 | 2.6 | 7.0 | 0.00 | 0.00 | 0.00 | 86 | 1007.0 |
| 20260506154848 | 62 | 208 | 1.7 | 6.1 | 0.00 | 0.00 | 0.00 | 86 | 1007.3 |
| 20260506154844 | 62 | 164 | 1.7 | 7.8 | 0.00 | 0.00 | 0.00 | 66 | 1008.9 |
| 20260506153352 | 62 | 160 | 3.5 | 7.8 | 0.00 | 0.00 | 0.00 | 86 | 1007.6 |
| 20260506153337 | 62 | 224 | 2.6 | 7.8 | 0.00 | 0.00 | 0.00 | 66 | 1009.2 |
| 20260506151825 | 62 | 166 | 3.5 | 10.4 | 0.00 | 0.00 | 0.00 | 64 | 1009.3 |
| 20260506150409 | 62 | 148 | 1.7 | 6.1 | 0.00 | 0.00 | 0.00 | 84 | 1007.8 |
| 20260506150355 | 61 | 114 | 4.3 | 9.6 | 0.00 | 0.00 | 0.00 | 65 | 1009.6 |
| 20260506144849 | 61 | 275 | 1.7 | 4.3 | 0.00 | 0.00 | 0.00 | 84 | 1008.0 |
| 20260506144836 | 61 | 132 | 1.7 | 7.0 | 0.00 | 0.00 | 0.00 | 65 | 1009.7 |
| 20260506143342 | 61 | 160 | 1.7 | 7.8 | 0.00 | 0.00 | 0.00 | 65 | 1009.6 |
| 20260506143329 | 61 | 175 | 2.6 | 7.0 | 0.00 | 0.00 | 0.00 | 84 | 1007.9 |
| 20260506141842 | 61 | 191 | 1.7 | 5.2 | 0.00 | 0.00 | 0.00 | 65 | 1009.3 |
| 20260506141828 | 61 | 157 | 1.7 | 6.1 | 0.00 | 0.00 | 0.00 | 84 | 1007.5 |
| 20260506140437 | 61 | 199 | 0.9 | 6.1 | 0.00 | 0.00 | 0.00 | 84 | 1007.9 |
| 20260506140344 | 61 | 202 | 1.7 | 7.0 | 0.00 | 0.00 | 0.00 | 65 | 1009.6 |
| 20260506134853 | 60 | 96 | 0.9 | 4.3 | 0.00 | 0.00 | 0.00 | 65 | 1009.2 |
| 20260506134829 | 60 | 187 | 4.3 | 8.7 | 0.00 | 0.00 | 0.00 | 85 | 1007.6 |
| 20260506133334 | 60 | 249 | 1.7 | 6.1 | 0.00 | 0.00 | 0.00 | 67 | 1009.3 |
| 20260506133332 | 60 | 144 | 1.7 | 6.1 | 0.00 | 0.00 | 0.00 | 86 | 1007.6 |
| 20260506131902 | 59 | 141 | 2.6 | 9.6 | 0.00 | 0.00 | 0.00 | 68 | 1009.4 |
| 20260506131813 | 59 | 138 | 1.7 | 7.0 | 0.00 | 0.00 | 0.00 | 86 | 1007.7 |
| 20260506130346 | 58 | 164 | 2.6 | 7.8 | 0.00 | 0.00 | 0.00 | 68 | 1009.7 |
| 20260506130332 | 59 | 276 | 0.9 | 4.3 | 0.00 | 0.00 | 0.00 | 87 | 1008.1 |
| 20260506124847 | 58 | 101 | 1.7 | 7.8 | 0.00 | 0.00 | 0.00 | 68 | 1009.9 |
| 20260506124837 | 59 | 98 | 0.9 | 6.1 | 0.00 | 0.00 | 0.00 | 87 | 1008.3 |
| 20260506123404 | 58 | 145 | 1.7 | 7.8 | 0.00 | 0.00 | 0.00 | 88 | 1008.6 |
| 20260506123328 | 58 | 137 | 0.9 | 4.3 | 0.00 | 0.00 | 0.00 | 68 | 1010.0 |
| 20260506121844 | 58 | 143 | 3.5 | 9.6 | 0.00 | 0.00 | 0.00 | 89 | 1008.2 |
| 20260506121827 | 58 | 203 | 3.5 | 7.8 | 0.00 | 0.00 | 0.00 | 68 | 1009.8 |
| 20260506120337 | 58 | 177 | 1.7 | 8.7 | 0.00 | 0.00 | 0.00 | 68 | 1009.5 |
| 20260506120322 | 58 | 153 | 7.8 | 9.6 | 0.00 | 0.00 | 0.00 | 89 | 1007.8 |
| 20260506114903 | 58 | 179 | 3.5 | 7.0 | 0.00 | 0.00 | 0.00 | 68 | 1009.6 |
| 20260506114824 | 57 | 153 | 7.0 | 8.7 | 0.00 | 0.00 | 0.00 | 89 | 1008.1 |
| 20260506113344 | 57 | 151 | 3.5 | 7.8 | 0.00 | 0.00 | 0.00 | 89 | 1008.3 |
| 20260506113327 | 57 | 118 | 3.5 | 7.8 | 0.00 | 0.00 | 0.00 | 68 | 1009.6 |
| 20260506111842 | 57 | 157 | 5.2 | 7.8 | 0.00 | 0.00 | 0.00 | 89 | 1008.5 |
| 20260506111835 | 57 | 118 | 3.5 | 8.7 | 0.00 | 0.00 | 0.00 | 68 | 1009.8 |
| 20260506110338 | 57 | 108 | 1.7 | 4.3 | 0.00 | 0.00 | 0.00 | 68 | 1009.7 |
| 20260506110320 | 57 | 153 | 7.0 | 9.6 | 0.00 | 0.00 | 0.00 | 89 | 1008.4 |
| 20260506104902 | 57 | 150 | 7.8 | 10.4 | 0.00 | 0.00 | 0.00 | 89 | 1008.2 |
| 20260506104843 | 57 | 145 | 2.6 | 7.0 | 0.00 | 0.00 | 0.00 | 68 | 1009.6 |
| 20260506103347 | 57 | 178 | 4.3 | 11.3 | 0.00 | 0.00 | 0.00 | 68 | 1009.7 |
| 20260506103324 | 57 | 155 | 7.0 | 8.7 | 0.00 | 0.00 | 0.00 | 89 | 1008.3 |
| 20260506101853 | 57 | 153 | 6.1 | 9.6 | 0.00 | 0.00 | 0.00 | 88 | 1008.2 |
| 20260506101832 | 57 | 149 | 2.6 | 7.8 | 0.00 | 0.00 | 0.00 | 68 | 1009.6 |
| 20260506100333 | 57 | 157 | 5.2 | 9.6 | 0.00 | 0.00 | 0.00 | 87 | 1008.1 |
| 20260506100328 | 57 | 139 | 0.9 | 6.1 | 0.00 | 0.00 | 0.00 | 68 | 1009.5 |
| 20260506094921 | 57 | 111 | 1.7 | 7.0 | 0.00 | 0.00 | 0.00 | 67 | 1009.5 |
| 20260506094815 | 57 | 165 | 4.3 | 9.6 | 0.00 | 0.00 | 0.00 | 88 | 1008.0 |
| 20260506093334 | 55 | 112 | 0.9 | 7.0 | 0.00 | 0.00 | 0.00 | 88 | 1008.1 |
| 20260506093331 | 57 | 110 | 1.7 | 7.8 | 0.00 | 0.00 | 0.00 | 67 | 1009.7 |
| 20260506091854 | 55 | 355 | 0.0 | 1.7 | 0.00 | 0.00 | 0.00 | 88 | 1008.1 |
| 20260506091829 | 57 | 134 | 2.6 | 6.1 | 0.00 | 0.00 | 0.00 | 66 | 1009.5 |
| 20260506090335 | 57 | 119 | 1.7 | 7.0 | 0.00 | 0.00 | 0.00 | 65 | 1009.6 |
| 20260506084925 | 57 | 135 | 2.6 | 7.0 | 0.00 | 0.00 | 0.00 | 65 | 1009.6 |
| 20260506084814 | 55 | 42 | 0.0 | 0.9 | 0.00 | 0.00 | 0.00 | 88 | 1008.3 |
| 20260506083353 | 57 | 85 | 1.7 | 5.2 | 0.00 | 0.00 | 0.00 | 64 | 1009.8 |
| 20260506083331 | 55 | 5 | 0.0 | 0.9 | 0.00 | 0.00 | 0.00 | 87 | 1008.4 |
| 20260506081829 | 56 | 5 | 0.0 | 0.9 | 0.00 | 0.00 | 0.00 | 86 | 1008.3 |
| 20260506080415 | 57 | 79 | 1.7 | 5.2 | 0.00 | 0.00 | 0.00 | 63 | 1009.8 |
| 20260506080347 | 57 | 9 | 0.0 | 0.0 | 0.00 | 0.00 | 0.00 | 84 | 1008.5 |
| 20260506080332 | 57 | 79 | 1.7 | 5.2 | 0.00 | 0.00 | 0.00 | 63 | 1009.8 |
| 20260506073355 | 58 | 91 | 1.7 | 2.6 | 0.00 | 0.00 | 0.00 | 62 | 1009.9 |
| 20260506073339 | 59 | 244 | 0.0 | 1.7 | 0.00 | 0.00 | 0.00 | 80 | 1008.6 |
| 20260506071920 | 58 | 145 | 0.9 | 5.2 | 0.00 | 0.00 | 0.00 | 61 | 1010.0 |
| 20260506071845 | 59 | 211 | 0.0 | 1.7 | 0.00 | 0.00 | 0.00 | 79 | 1008.5 |
| 20260506070338 | 59 | 110 | 0.9 | 3.5 | 0.00 | 0.00 | 0.00 | 61 | 1010.1 |
| 20260506070316 | 59 | 251 | 0.0 | 1.7 | 0.00 | 0.00 | 0.00 | 78 | 1008.6 |
| 20260506061901 | 60 | 260 | 0.9 | 3.5 | 0.00 | 0.00 | 0.00 | 76 | 1008.4 |
| 20260506061854 | 60 | 88 | 1.7 | 5.2 | 0.00 | 0.00 | 0.00 | 59 | 1009.9 |
| 20260506060424 | 60 | 143 | 2.6 | 5.2 | 0.00 | 0.00 | 0.00 | 58 | 1010.0 |
| 20260506060321 | 61 | 284 | 0.9 | 1.7 | 0.00 | 0.00 | 0.00 | 75 | 1008.5 |
| 20260506050332 | 61 | 108 | 3.5 | 7.8 | 0.00 | 0.00 | 0.00 | 55 | 1010.1 |
| 20260506050322 | 62 | 155 | 0.0 | 3.5 | 0.00 | 0.00 | 0.00 | 72 | 1008.7 |
| 20260506044905 | 62 | 134 | 2.6 | 5.2 | 0.00 | 0.00 | 0.00 | 54 | 1010.2 |
| 20260506044820 | 62 | 188 | 0.0 | 2.6 | 0.00 | 0.00 | 0.00 | 71 | 1008.9 |
| 20260506043349 | 62 | 169 | 1.7 | 7.0 | 0.00 | 0.00 | 0.00 | 54 | 1010.2 |
| 20260506043321 | 63 | 265 | 1.7 | 3.5 | 0.00 | 0.00 | 0.00 | 71 | 1008.7 |
| 20260506041833 | 63 | 16 | 1.7 | 7.0 | 0.00 | 0.00 | 0.00 | 54 | 1010.1 |
| 20260506041830 | 63 | 172 | 1.7 | 4.3 | 0.00 | 0.00 | 0.00 | 71 | 1008.6 |
| 20260506040419 | 63 | 89 | 2.6 | 7.8 | 0.00 | 0.00 | 0.00 | 54 | 1010.2 |
| 20260506040313 | 64 | 173 | 0.9 | 3.5 | 0.00 | 0.00 | 0.00 | 70 | 1008.7 |
| 20260506034856 | 64 | 176 | 1.7 | 6.1 | 0.00 | 0.00 | 0.00 | 69 | 1008.7 |
| 20260506034831 | 63 | 99 | 4.3 | 7.8 | 0.00 | 0.00 | 0.00 | 53 | 1010.3 |
| 20260506033351 | 64 | 140 | 2.6 | 6.1 | 0.00 | 0.00 | 0.00 | 53 | 1010.1 |
| 20260506033335 | 65 | 121 | 1.7 | 3.5 | 0.00 | 0.00 | 0.00 | 69 | 1008.5 |
| 20260506031841 | 65 | 253 | 0.0 | 4.3 | 0.00 | 0.00 | 0.00 | 69 | 1008.5 |
| 20260506031826 | 65 | 264 | 2.6 | 4.3 | 0.00 | 0.00 | 0.00 | 53 | 1010.1 |
| 20260506030341 | 65 | 112 | 0.9 | 3.5 | 0.00 | 0.00 | 0.00 | 52 | 1010.1 |
| 20260506030316 | 65 | 298 | 0.0 | 2.6 | 0.00 | 0.00 | 0.00 | 69 | 1008.5 |
| 20260506024842 | 65 | 137 | 1.7 | 6.1 | 0.00 | 0.00 | 0.00 | 52 | 1009.9 |
| 20260506023349 | 65 | 100 | 1.7 | 5.2 | 0.00 | 0.00 | 0.00 | 54 | 1009.9 |
| 20260506023344 | 66 | 148 | 0.9 | 3.5 | 0.00 | 0.00 | 0.00 | 70 | 1008.4 |
| 20260506021851 | 66 | 127 | 2.6 | 7.0 | 0.00 | 0.00 | 0.00 | 54 | 1010.1 |
| 20260506021843 | 65 | 275 | 0.9 | 3.5 | 0.00 | 0.00 | 0.00 | 70 | 1008.6 |
| 20260506020354 | 66 | 178 | 1.7 | 5.2 | 0.00 | 0.00 | 0.00 | 52 | 1010.4 |
| 20260506020340 | 64 | 57 | 0.0 | 2.6 | 0.00 | 0.00 | 0.00 | 76 | 1008.6 |
| 20260506014924 | 67 | 156 | 2.6 | 7.8 | 0.00 | 0.00 | 0.00 | 52 | 1009.7 |
| 20260506014904 | 64 | 9 | 0.9 | 6.1 | 0.00 | 0.00 | 0.00 | 77 | 1008.2 |
| 20260506014821 | 64 | 9 | 0.9 | 6.1 | 0.00 | 0.00 | 0.00 | 77 | 1008.2 |
| 20260506013400 | 65 | 355 | 0.9 | 5.2 | 0.00 | 0.00 | 0.00 | 75 | 1008.3 |
| 20260506013327 | 67 | 108 | 3.5 | 5.2 | 0.00 | 0.00 | 0.00 | 52 | 1009.6 |
| 20260506011833 | 67 | 120 | 1.7 | 3.5 | 0.00 | 0.00 | 0.00 | 50 | 1009.6 |
| 20260506011821 | 66 | 151 | 0.0 | 1.7 | 0.00 | 0.00 | 0.00 | 72 | 1008.0 |